Fairbanks, AK

2:05 AM AKDT on October 23, 2017 (GMT -0800)
Fairbanks International

Weather History for PAFA - October, 2013

Change the Weather History Date:

Saturday, October 12, 2013

  Actual Average Record
Temperature  
Mean Temperature 40 °F 28 °F  
Max Temperature 54 °F 36 °F 58 °F (1923)
Min Temperature 26 °F 20 °F -7 °F (1927)
Degree Days  
Heating Degree Days 25 37  
Month to date heating degree days 331 393  
Since 1 July heating degree days 1220 1387  
Cooling Degree Days 0 0  
Month to date cooling degree days 0 0  
Year to date cooling degree days 226 61  
Moisture  
Dew Point 29 °F    
Average Humidity 69    
Maximum Humidity 89    
Minimum Humidity 30    
Precipitation  
Precipitation 0.00 in 0.02 in 0.26 in (1996)
Month to date precipitation 0.19 0.34  
Year to date precipitation 7.73 9.01  
Snow  
Snow 0.00 in 0.30 in 4.30 in (1996)
Month to date snowfall 0.1 3.1  
Since 1 July snowfall 0.8 4.9  
Since 1 September snowfall 0.8 4.9  
Snow Depth 0.00 in    
Sea Level Pressure  
Sea Level Pressure 29.74 in    
Wind  
Wind Speed 3 mph (NE)    
Max Wind Speed 8 mph    
Max Gust Speed -    
Visibility 10 miles    
Events      
T = Trace of Precipitation, MM = Missing Value Source: NWS Daily Summary

Daily Weather History Graph

Daily Weather History Graph

Search for Another Location

Airport or City:

Trip Planner

Search our weather history database for the weather conditions in past years. The results will help you decide how hot, cold, wet, or windy it might be!

Date:

Astronomy

Oct. 12, 2013 Rise Set
Actual Time 8:35 AM AKDT 6:38 PM AKDT
Civil Twilight 7:46 AM AKDT 7:27 PM AKDT
Nautical Twilight 6:49 AM AKDT 8:24 PM AKDT
Astronomical Twilight 5:51 AM AKDT 9:22 PM AKDT
Moon 4:56 PM AKDT (10/12) No Moon Set
Length of Visible Light 11h 41m
Length of Day
10h 02m
First Quarter, 60% of the Moon is Illuminated
Oct 12
First Quarter
Oct 18
Full
Oct 26
Last Quarter
Nov 3
New
Nov 9
First Quarter

Hourly Weather History & Observations

Time (AKDT) Temp. Windchill Dew Point Humidity Pressure Visibility Wind Dir Wind Speed Gust Speed Precip Events Conditions
12:53 AM 28.0 °F - 25.0 °F 88% 29.81 in 10.0 mi Calm Calm - N/A   Scattered Clouds
1:53 AM 28.9 °F - 26.1 °F 89% 29.79 in 10.0 mi Calm Calm - N/A   Clear
2:53 AM 28.9 °F - 25.0 °F 85% 29.77 in 10.0 mi Calm Calm - N/A   Clear
3:53 AM 28.0 °F - 25.0 °F 88% 29.76 in 10.0 mi Calm Calm - N/A   Clear
4:53 AM 28.9 °F 23.9 °F 26.1 °F 89% 29.76 in 10.0 mi NNE 4.6 mph - N/A   Clear
5:53 AM 30.9 °F 26.2 °F 27.0 °F 85% 29.75 in 10.0 mi NNE 4.6 mph - N/A   Scattered Clouds
6:53 AM 32.0 °F 28.7 °F 28.0 °F 85% 29.74 in 10.0 mi NNE 3.5 mph - N/A   Overcast
7:53 AM 34.0 °F 31.0 °F 30.0 °F 85% 29.75 in 10.0 mi NNE 3.5 mph - N/A   Mostly Cloudy
8:53 AM 35.1 °F 31.0 °F 30.0 °F 82% 29.74 in 10.0 mi NNE 4.6 mph - N/A   Overcast
9:53 AM 36.0 °F 33.3 °F 30.0 °F 79% 29.74 in 10.0 mi NE 3.5 mph - N/A   Mostly Cloudy
10:53 AM 37.0 °F - 32.0 °F 82% 29.75 in 10.0 mi Calm Calm - N/A   Mostly Cloudy
11:53 AM 43.0 °F 39.5 °F 34.0 °F 71% 29.75 in 10.0 mi NE 5.8 mph - N/A   Mostly Cloudy
12:53 PM 46.9 °F - 33.1 °F 59% 29.75 in 10.0 mi NNE 3.5 mph - N/A   Mostly Cloudy
1:53 PM 51.1 °F - 33.1 °F 50% 29.75 in 10.0 mi ENE 6.9 mph - N/A   Mostly Cloudy
2:53 PM 54.0 °F - 30.9 °F 41% 29.74 in 10.0 mi ENE 5.8 mph - N/A   Mostly Cloudy
3:53 PM 53.1 °F - 30.9 °F 43% 29.74 in 10.0 mi ENE 6.9 mph - N/A   Mostly Cloudy
4:53 PM 50.0 °F - 32.0 °F 50% 29.73 in 10.0 mi NE 5.8 mph - N/A   Mostly Cloudy
5:53 PM 46.0 °F 43.1 °F 32.0 °F 58% 29.73 in 10.0 mi NNE 5.8 mph - N/A   Mostly Cloudy
6:53 PM 45.0 °F 41.2 °F 30.9 °F 58% 29.74 in 10.0 mi NNE 6.9 mph - N/A   Mostly Cloudy
7:53 PM 39.9 °F 35.8 °F 30.0 °F 68% 29.73 in 10.0 mi NNE 5.8 mph - N/A   Mostly Cloudy
8:53 PM 41.0 °F 36.4 °F 28.9 °F 62% 29.72 in 10.0 mi North 6.9 mph - N/A   Scattered Clouds
9:53 PM 37.9 °F 33.5 °F 28.9 °F 70% 29.71 in 10.0 mi NNE 5.8 mph - N/A   Scattered Clouds
10:53 PM 42.1 °F 37.7 °F 30.9 °F 65% 29.71 in 10.0 mi NNE 6.9 mph - N/A   Mostly Cloudy
11:53 PM 43.0 °F 38.2 °F 30.9 °F 62% 29.68 in 10.0 mi NNE 8.1 mph - N/A   Mostly Cloudy